Marion Regional, IL

7:54 AM CDT on April 29, 2017 (GMT -0500)
Williamson County Regional

Weather History for KMWA - March, 2014

Change the Weather History Date:

Saturday, March 15, 2014

  Actual Average Record
Temperature  
Mean Temperature 51 °F -  
Max Temperature 69 °F 54 °F 78 °F (2016)
Min Temperature 33 °F 31 °F 12 °F (1993)
Degree Days  
Heating Degree Days 14    
Growing Degree Days 1 (Base 50)    
Moisture  
Dew Point 33 °F    
Average Humidity 60    
Maximum Humidity 100    
Minimum Humidity 18    
Precipitation  
Precipitation 0.00 in - - ()
Sea Level Pressure  
Sea Level Pressure 30.00 in    
Wind  
Wind Speed 4 mph (SE)    
Max Wind Speed 12 mph    
Max Gust Speed -    
Visibility 10 miles    
Events Fog    
Averages and records for this station are not official NWS values.
T = Trace of Precipitation, MM = Missing Value Source: NWS Daily Summary

Daily Weather History Graph

Daily Weather History Graph

Search for Another Location

Airport or City:

Trip Planner

Search our weather history database for the weather conditions in past years. The results will help you decide how hot, cold, wet, or windy it might be!

Date:

Astronomy

Mar. 15, 2014 Rise Set
Actual Time 7:07 AM CDT 7:03 PM CDT
Civil Twilight 6:40 AM CDT 7:29 PM CDT
Nautical Twilight 6:10 AM CDT 7:59 PM CDT
Astronomical Twilight 5:39 AM CDT 8:30 PM CDT
Moon 6:22 PM CDT (3/15) 6:18 AM CDT (3/15)
Length of Visible Light 12h 48m
Length of Day
11h 56m
Waxing Gibbous, 99% of the Moon is Illuminated
Mar 15
Waxing Gibbous
Mar 16
Full
Mar 23
Last Quarter
Mar 30
New
Apr 7
First Quarter

Hourly Weather History & Observations

Time (CDT) Temp. Windchill Dew Point Humidity Pressure Visibility Wind Dir Wind Speed Gust Speed Precip Events Conditions
12:15 AM 51.8 °F - 42.8 °F 71% 30.01 in 10.0 mi WSW 4.6 mph - N/A   Clear
12:35 AM 50.0 °F - 42.8 °F 76% 30.01 in 10.0 mi WSW 3.5 mph - N/A   Clear
12:55 AM 50.0 °F - 42.8 °F 76% 30.02 in 10.0 mi WSW 3.5 mph - N/A   Clear
1:15 AM 48.2 °F - 42.8 °F 82% 30.01 in 10.0 mi WSW 3.5 mph - N/A   Clear
1:35 AM 48.2 °F - 42.8 °F 82% 30.02 in 10.0 mi Calm Calm - N/A   Clear
1:55 AM 46.4 °F - 42.8 °F 87% 30.03 in 10.0 mi Calm Calm - N/A   Clear
2:15 AM 42.8 °F - 39.2 °F 87% 30.04 in 10.0 mi Calm Calm - N/A   Clear
2:35 AM 39.2 °F - 37.4 °F 93% 30.04 in 10.0 mi Calm Calm - N/A   Clear
2:55 AM 39.2 °F - 39.2 °F 100% 30.04 in 7.0 mi Calm Calm - N/A   Clear
3:15 AM 37.4 °F - 35.6 °F 93% 30.04 in 1.8 mi Calm Calm - N/A   Mist
3:35 AM 39.2 °F - 37.4 °F 93% 30.03 in 1.5 mi Calm Calm - N/A   Mist
3:55 AM 39.2 °F - 37.4 °F 93% 30.03 in 0.8 mi Calm Calm - N/A   Mist
4:15 AM 37.4 °F - 37.4 °F 100% 30.04 in 0.5 mi Calm Calm - N/A Fog Fog
4:35 AM 37.4 °F - 35.6 °F 93% 30.04 in 0.5 mi Calm Calm - N/A Fog Fog
4:55 AM 35.6 °F - 35.6 °F 100% 30.04 in 0.8 mi Calm Calm - N/A   Mist
5:15 AM 35.6 °F - 35.6 °F 100% 30.04 in 0.5 mi Calm Calm - N/A Fog Fog
5:35 AM 37.4 °F - 37.4 °F 100% 30.04 in 1.0 mi Calm Calm - N/A   Mostly Cloudy
5:55 AM 33.8 °F 28.6 °F 33.8 °F 100% 30.05 in 4.0 mi SSW 5.8 mph - N/A   Clear
6:15 AM 35.6 °F 30.7 °F 33.8 °F 93% 30.05 in 0.5 mi South 5.8 mph - N/A Fog Fog
6:51 AM 33.8 °F 28.6 °F 33.8 °F 100% 30.05 in 10.0 mi SSE 5.8 mph - N/A   Clear
7:51 AM 39.2 °F 35.0 °F 37.4 °F 93% 30.07 in 10.0 mi SE 5.8 mph - N/A   Clear
8:57 AM 48.2 °F - 39.2 °F 71% 30.09 in 10.0 mi SE 5.8 mph - N/A   Clear
9:54 AM 55.4 °F - 37.4 °F 51% 30.09 in 20.0 mi SE 8.1 mph - N/A   Scattered Clouds
10:58 AM 60.8 °F - 30.2 °F 31% 30.09 in 20.0 mi SE 8.1 mph - N/A   Scattered Clouds
11:58 AM 64.4 °F - 26.6 °F 24% 30.08 in 20.0 mi SSE 8.1 mph - N/A   Scattered Clouds
12:55 PM 66.2 °F - 26.6 °F 23% 30.06 in 20.0 mi SSE 8.1 mph - N/A   Scattered Clouds
1:52 PM 68.0 °F - 26.6 °F 21% 30.03 in 20.0 mi South 11.5 mph - N/A   Scattered Clouds
2:45 PM 68.0 °F - 28.4 °F 23% 30.01 in 20.0 mi SSE 9.2 mph - N/A   Scattered Clouds
3:45 PM 69.8 °F - 28.4 °F 21% 29.99 in 20.0 mi South 11.5 mph - N/A   Scattered Clouds
4:45 PM 68.0 °F - 26.6 °F 21% 29.96 in 20.0 mi South 11.5 mph - N/A   Scattered Clouds
5:45 PM 68.0 °F - 23.0 °F 18% 29.95 in 20.0 mi SSE 9.2 mph - N/A   Scattered Clouds
6:35 PM 66.2 °F - 26.6 °F 23% 29.94 in 10.0 mi SE 4.6 mph - N/A   Clear
6:55 PM 64.4 °F - 26.6 °F 24% 29.95 in 10.0 mi SSE 4.6 mph - N/A   Clear
7:15 PM 62.6 °F - 26.6 °F 26% 29.94 in 10.0 mi SE 4.6 mph - N/A   Clear
7:35 PM 60.8 °F - 28.4 °F 29% 29.94 in 10.0 mi ESE 3.5 mph - N/A   Clear
7:55 PM 53.6 °F - 32.0 °F 44% 29.94 in 10.0 mi ESE 3.5 mph - N/A   Clear
8:15 PM 51.8 °F - 32.0 °F 47% 29.94 in 10.0 mi Calm Calm - N/A   Clear
8:35 PM 51.8 °F - 32.0 °F 47% 29.94 in 10.0 mi ESE 3.5 mph - N/A   Clear
8:55 PM 50.0 °F - 32.0 °F 50% 29.94 in 10.0 mi East 3.5 mph - N/A   Clear
9:15 PM 53.6 °F - 30.2 °F 41% 29.95 in 10.0 mi ESE 4.6 mph - N/A   Clear
9:35 PM 50.0 °F - 32.0 °F 50% 29.95 in 10.0 mi ESE 4.6 mph - N/A   Clear
9:55 PM 51.8 °F - 30.2 °F 44% 29.95 in 10.0 mi Calm Calm - N/A   Clear
10:15 PM 51.8 °F - 32.0 °F 47% 29.95 in 10.0 mi ESE 4.6 mph - N/A   Clear
10:35 PM 51.8 °F - 30.2 °F 44% 29.94 in 10.0 mi ESE 5.8 mph - N/A   Mostly Cloudy
10:55 PM 53.6 °F - 28.4 °F 38% 29.94 in 10.0 mi ESE 5.8 mph - N/A   Scattered Clouds
11:15 PM 53.6 °F - 28.4 °F 38% 29.93 in 10.0 mi East 5.8 mph - N/A   Clear
11:35 PM 53.6 °F - 30.2 °F 41% 29.93 in 10.0 mi ENE 5.8 mph - N/A   Clear
11:55 PM 50.0 °F - 32.0 °F 50% 29.92 in 10.0 mi East 5.8 mph - N/A   Clear